Weather History for KAXN - February, 2013

Change the Weather History Date:

Wednesday, February 13, 2013

  Actual Average Record
Temperature  
Mean Temperature 24 °F -  
Max Temperature 33 °F 22 °F 43 °F (2011)
Min Temperature 16 °F 4 °F -22 °F (1951)
Degree Days  
Heating Degree Days 40    
Moisture  
Dew Point 26 °F    
Average Humidity 90    
Maximum Humidity 96    
Minimum Humidity 72    
Precipitation  
Precipitation 0.21 in - - ()
Sea Level Pressure  
Sea Level Pressure 29.63 in    
Wind  
Wind Speed 6 mph (NW)    
Max Wind Speed 13 mph    
Max Gust Speed -    
Visibility 3 miles    
Events Fog , Snow    
Averages and records for this station are not official NWS values.
T = Trace of Precipitation, MM = Missing Value Source: NWS Daily Summary

Daily Weather History Graph

Daily Weather History Graph

Search for Another Location

Airport or City:

Trip Planner

Search our weather history database for the weather conditions in past years. The results will help you decide how hot, cold, wet, or windy it might be!

Date:

Astronomy

Feb. 13, 2013 Rise Set
Actual Time 7:26 AM CST 5:45 PM CST
Civil Twilight 6:55 AM CST 6:16 PM CST
Nautical Twilight 6:20 AM CST 6:51 PM CST
Astronomical Twilight 5:46 AM CST 7:25 PM CST
Moon 8:41 AM CST (2/13) 10:05 PM CST (2/13)
Length of Visible Light 11h 20m
Length of Day
10h 18m
Waxing Crescent, 14% of the Moon is Illuminated
Feb 13
Waxing Crescent
Feb 17
First Quarter
Feb 25
Full
Mar 4
Last Quarter
Mar 11
New

Hourly Weather History & Observations

Time (CST) Temp. Windchill Dew Point Humidity Pressure Visibility Wind Dir Wind Speed Gust Speed Precip Events Conditions
12:53 AM 19.9 °F 13.4 °F 17.1 °F 89% 29.82 in 8.0 mi West 4.6 mph - N/A   Clear
1:53 AM 19.9 °F 11.1 °F 17.1 °F 89% 29.81 in 8.0 mi West 6.9 mph - N/A   Clear
2:53 AM 23.0 °F 12.4 °F 19.0 °F 85% 29.81 in 10.0 mi WNW 10.4 mph - N/A   Partly Cloudy
3:53 AM 24.1 °F 17.0 °F 19.9 °F 84% 29.79 in 10.0 mi WSW 5.8 mph - N/A   Overcast
4:53 AM 23.0 °F 15.8 °F 19.0 °F 85% 29.78 in 10.0 mi SW 5.8 mph - N/A   Overcast
6:53 AM 18.0 °F 11.1 °F 15.1 °F 88% 29.75 in 9.0 mi SW 4.6 mph - N/A   Partly Cloudy
7:53 AM 16.0 °F 8.8 °F 15.1 °F 96% 29.75 in 5.0 mi SW 4.6 mph - N/A   Clear
8:53 AM 19.0 °F 11.1 °F 17.1 °F 92% 29.74 in 8.0 mi SW 5.8 mph - N/A   Clear
9:53 AM 24.1 °F 16.0 °F 19.9 °F 84% 29.72 in 10.0 mi WSW 6.9 mph - N/A   Clear
10:53 AM 28.9 °F 22.8 °F 23.0 °F 78% 29.71 in 10.0 mi West 5.8 mph - N/A   Partly Cloudy
11:53 AM 30.9 °F 23.5 °F 25.0 °F 79% 29.69 in 10.0 mi West 8.1 mph - N/A   Overcast
12:53 PM 33.1 °F 25.5 °F 25.0 °F 72% 29.67 in 10.0 mi West 9.2 mph - N/A   Overcast
1:53 PM 32.0 °F 25.6 °F 26.1 °F 79% 29.65 in 5.0 mi WSW 6.9 mph - 0.00 in Snow Light Snow
2:03 PM 30.2 °F 24.3 °F 26.6 °F 86% 29.59 in 2.0 mi WSW 5.8 mph - 0.00 in Snow Light Snow
2:11 PM 30.2 °F 25.4 °F 26.6 °F 86% 29.58 in 1.5 mi WSW 4.6 mph - 0.00 in Snow Light Snow
2:31 PM 30.2 °F 26.7 °F 28.4 °F 93% 29.58 in 1.0 mi SW 3.5 mph - 0.00 in Snow Light Snow
2:45 PM 30.2 °F 26.7 °F 28.4 °F 93% 29.57 in 0.8 mi South 3.5 mph - 0.01 in Snow Light Snow
2:53 PM 30.0 °F 26.5 °F 27.0 °F 88% 29.63 in 0.8 mi South 3.5 mph - 0.01 in Snow Light Snow
3:29 PM 30.2 °F - 28.4 °F 93% 29.56 in 0.5 mi Calm Calm - 0.02 in Fog , Snow Snow
3:53 PM 30.0 °F - 28.0 °F 92% 29.62 in 0.5 mi Calm Calm - 0.04 in Fog , Snow Snow
4:53 PM 30.0 °F 25.2 °F 28.0 °F 92% 29.61 in 0.5 mi SSE 4.6 mph - 0.04 in Fog , Snow Snow
4:59 PM 30.2 °F 25.4 °F 28.4 °F 93% 29.55 in 0.8 mi SE 4.6 mph - 0.00 in Snow Light Snow
5:06 PM 30.2 °F 25.4 °F 28.4 °F 93% 29.55 in 0.8 mi SE 4.6 mph - 0.00 in Snow Light Snow
5:11 PM 30.2 °F 26.7 °F 28.4 °F 93% 29.55 in 1.0 mi SE 3.5 mph - 0.00 in Snow Light Snow
5:28 PM 30.2 °F 26.7 °F 28.4 °F 93% 29.55 in 0.5 mi SSE 3.5 mph - 0.01 in Fog , Snow Snow
5:32 PM 30.2 °F 25.4 °F 28.4 °F 93% 29.56 in 0.5 mi South 4.6 mph - 0.01 in Fog , Snow Snow
5:53 PM 30.0 °F 26.5 °F 28.0 °F 92% 29.62 in 0.5 mi South 3.5 mph - 0.03 in Fog , Snow Snow
6:08 PM 30.2 °F - 28.4 °F 93% 29.57 in 0.8 mi Calm Calm - 0.01 in Snow Light Snow
6:23 PM 30.2 °F - 28.4 °F 93% 29.57 in 1.0 mi Calm Calm - 0.03 in Snow Light Snow
6:33 PM 30.2 °F - 28.4 °F 93% 29.57 in 1.5 mi Calm Calm - 0.03 in Snow Light Snow
6:35 PM 30.2 °F - 28.4 °F 93% 29.57 in 1.2 mi Calm Calm - 0.03 in Snow Light Snow
6:51 PM 30.2 °F 25.4 °F 28.4 °F 93% 29.57 in 0.8 mi North 4.6 mph - 0.04 in Snow Light Snow
6:53 PM 30.0 °F 25.2 °F 28.0 °F 92% 29.63 in 0.8 mi North 4.6 mph - 0.04 in Snow Light Snow
7:06 PM 30.2 °F 24.3 °F 28.4 °F 93% 29.57 in 0.8 mi North 5.8 mph - 0.01 in Snow Light Snow
7:17 PM 30.2 °F 24.3 °F 28.4 °F 93% 29.57 in 0.8 mi North 5.8 mph - 0.02 in Snow Light Snow
7:26 PM 30.2 °F 24.3 °F 28.4 °F 93% 29.57 in 1.0 mi North 5.8 mph - 0.02 in Snow Light Snow
7:39 PM 30.2 °F 23.4 °F 28.4 °F 93% 29.58 in 1.2 mi North 6.9 mph - 0.02 in Snow Light Snow
7:42 PM 30.2 °F 23.4 °F 28.4 °F 93% 29.58 in 1.5 mi North 6.9 mph - 0.02 in Snow Light Snow
7:53 PM 30.0 °F 23.2 °F 28.9 °F 96% 29.65 in 1.2 mi North 6.9 mph - 0.03 in Snow Light Snow
8:10 PM 30.2 °F 23.4 °F 28.4 °F 93% 29.58 in 1.8 mi North 6.9 mph - 0.00 in Snow Light Snow
8:19 PM 30.2 °F 22.6 °F 28.4 °F 93% 29.58 in 2.0 mi North 8.1 mph - 0.00 in Snow Light Snow
8:27 PM 30.2 °F 21.9 °F 28.4 °F 93% 29.59 in 1.5 mi North 9.2 mph - 0.01 in Snow Light Snow
8:36 PM 30.2 °F 21.9 °F 28.4 °F 93% 29.59 in 1.2 mi North 9.2 mph - 0.01 in Snow Light Snow
8:53 PM 30.9 °F 22.2 °F 28.9 °F 92% 29.66 in 1.5 mi North 10.4 mph - 0.01 in Snow Light Snow
9:15 PM 30.2 °F 21.3 °F 28.4 °F 93% 29.60 in 2.0 mi North 10.4 mph - 0.00 in Snow Light Snow
9:29 PM 30.2 °F 20.2 °F 28.4 °F 93% 29.61 in 1.5 mi North 12.7 mph - 0.00 in Snow Light Snow
9:35 PM 30.2 °F 20.2 °F 28.4 °F 93% 29.61 in 1.2 mi North 12.7 mph - 0.00 in Snow Light Snow
9:53 PM 30.0 °F 21.7 °F 28.0 °F 92% 29.68 in 1.2 mi North 9.2 mph - 0.01 in Snow Light Snow
10:04 PM 30.2 °F 21.3 °F 26.6 °F 86% 29.62 in 1.5 mi North 10.4 mph - 0.00 in Snow Light Snow
10:26 PM 30.2 °F 21.9 °F 26.6 °F 86% 29.63 in 2.5 mi North 9.2 mph - 0.00 in Snow Light Snow
10:35 PM 30.2 °F 21.3 °F 26.6 °F 86% 29.64 in 3.0 mi North 10.4 mph - 0.00 in Snow Light Snow
10:42 PM 30.2 °F 21.3 °F 26.6 °F 86% 29.64 in 2.5 mi North 10.4 mph - 0.00 in Snow Light Snow
10:53 PM 30.0 °F 21.1 °F 27.0 °F 88% 29.70 in 2.0 mi North 10.4 mph - 0.00 in Snow Light Snow
11:17 PM 28.4 °F 20.4 °F 26.6 °F 93% 29.65 in 3.0 mi North 8.1 mph - 0.00 in Snow Light Snow
11:53 PM 28.9 °F 20.4 °F 26.1 °F 89% 29.72 in 7.0 mi North 9.2 mph - 0.00 in   Overcast